| time (UTC) | temp F | wind direction | speed MPH | gust MPH | rain 1hr in | rain 24hr in | rain mn in | humidity % | barometer mb |
| 20260506070941 | 60 | 65 | 0.0 | 2.0 | 0.00 | 0.00 | 0.00 | 77 | 1009.2 |
| 20260506070438 | 60 | 37 | 0.0 | 2.0 | 0.00 | 0.00 | 0.00 | 75 | 1009.5 |
| 20260506062416 | 60 | 138 | 0.0 | 2.0 | 0.00 | 0.00 | 0.00 | 68 | 1009.5 |
| 20260506061911 | 59 | 140 | 0.0 | 1.0 | 0.00 | 0.00 | 0.00 | 71 | 1009.5 |
| 20260506061408 | 59 | 88 | 1.0 | 2.0 | 0.00 | 0.00 | 0.00 | 73 | 1009.6 |
| 20260506060906 | 60 | 127 | 0.0 | 2.0 | 0.00 | 0.00 | 0.00 | 74 | 1009.7 |
| 20260506060404 | 59 | 91 | 1.0 | 3.0 | 0.00 | 0.00 | 0.00 | 74 | 1009.7 |
| 20260506051336 | 57 | 121 | 0.0 | 2.0 | 0.00 | 0.00 | 0.00 | 79 | 1010.1 |
| 20260506050833 | 57 | 80 | 1.0 | 3.0 | 0.00 | 0.00 | 0.00 | 79 | 1010.4 |
| 20260506050331 | 57 | 86 | 4.0 | 4.0 | 0.00 | 0.00 | 0.00 | 83 | 1010.4 |
| 20260506044821 | 56 | 128 | 1.0 | 3.0 | 0.00 | 0.00 | 0.00 | 85 | 1010.2 |
| 20260506044319 | 57 | 153 | 2.0 | 3.0 | 0.00 | 0.00 | 0.00 | 84 | 1010.2 |
| 20260506043816 | 57 | 198 | 2.0 | 4.0 | 0.00 | 0.00 | 0.00 | 85 | 1010.2 |
| 20260506043313 | 57 | 176 | 2.0 | 3.0 | 0.00 | 0.00 | 0.00 | 84 | 1009.9 |
| 20260506042812 | 57 | 151 | 2.0 | 2.0 | 0.00 | 0.00 | 0.00 | 84 | 1010.2 |
| 20260506042310 | 57 | 80 | 0.0 | 2.0 | 0.00 | 0.00 | 0.00 | 84 | 1010.3 |
| 20260506041809 | 58 | 34 | 0.0 | 2.0 | 0.00 | 0.00 | 0.00 | 84 | 1010.4 |
| 20260506041305 | 58 | 174 | 3.0 | 3.0 | 0.00 | 0.00 | 0.00 | 82 | 1010.4 |
| 20260506040802 | 58 | 180 | 2.0 | 3.0 | 0.00 | 0.00 | 0.00 | 82 | 1010.4 |
| 20260506040259 | 58 | 188 | 0.0 | 3.0 | 0.00 | 0.00 | 0.00 | 82 | 1010.4 |
| 20260506035756 | 58 | 44 | 0.0 | 3.0 | 0.00 | 0.00 | 0.00 | 82 | 1010.4 |
| 20260506035253 | 58 | 155 | 2.0 | 4.0 | 0.00 | 0.00 | 0.00 | 84 | 1010.7 |
| 20260506034750 | 58 | 174 | 1.0 | 3.0 | 0.00 | 0.00 | 0.00 | 83 | 1010.4 |
| 20260506034247 | 58 | 87 | 1.0 | 3.0 | 0.00 | 0.00 | 0.00 | 83 | 1010.4 |
| 20260506033744 | 59 | 108 | 1.0 | 3.0 | 0.00 | 0.00 | 0.00 | 83 | 1010.3 |
| 20260506033241 | 59 | 85 | 2.0 | 3.0 | 0.00 | 0.00 | 0.00 | 82 | 1010.5 |
| 20260506032738 | 59 | 121 | 0.0 | 4.0 | 0.00 | 0.00 | 0.00 | 82 | 1010.4 |
| 20260506032235 | 58 | 134 | 3.0 | 4.0 | 0.00 | 0.00 | 0.00 | 83 | 1010.5 |
| 20260506031726 | 58 | 126 | 2.0 | 3.0 | 0.00 | 0.00 | 0.00 | 83 | 1010.2 |
| 20260506031224 | 59 | 122 | 2.0 | 4.0 | 0.00 | 0.00 | 0.00 | 82 | 1010.3 |
| 20260506030722 | 59 | 136 | 2.0 | 4.0 | 0.00 | 0.00 | 0.00 | 82 | 1010.3 |
| 20260506030219 | 59 | 161 | 2.0 | 4.0 | 0.00 | 0.00 | 0.00 | 82 | 1010.4 |
| 20260506025716 | 59 | 111 | 1.0 | 3.0 | 0.00 | 0.00 | 0.00 | 82 | 1010.4 |
| 20260506025212 | 59 | 153 | 1.0 | 5.0 | 0.00 | 0.00 | 0.00 | 82 | 1010.5 |
| 20260506024709 | 59 | 91 | 1.0 | 5.0 | 0.00 | 0.00 | 0.00 | 81 | 1010.3 |
| 20260506024205 | 60 | 114 | 3.0 | 3.0 | 0.00 | 0.00 | 0.00 | 80 | 1010.3 |
| 20260506023702 | 60 | 130 | 3.0 | 4.0 | 0.00 | 0.00 | 0.00 | 80 | 1010.4 |
| 20260506023159 | 60 | 188 | 1.0 | 4.0 | 0.00 | 0.00 | 0.00 | 79 | 1010.6 |
| 20260506022656 | 61 | 114 | 2.0 | 4.0 | 0.00 | 0.00 | 0.00 | 77 | 1010.2 |
| 20260506022154 | 61 | 133 | 3.0 | 4.0 | 0.00 | 0.00 | 0.00 | 77 | 1010.5 |
| 20260506021651 | 62 | 118 | 0.0 | 2.0 | 0.00 | 0.00 | 0.00 | 76 | 1010.6 |
| 20260506021148 | 62 | 181 | 2.0 | 3.0 | 0.00 | 0.00 | 0.00 | 75 | 1010.5 |
| 20260506020645 | 63 | 133 | 2.0 | 3.0 | 0.00 | 0.00 | 0.00 | 73 | 1010.5 |
| 20260506020143 | 64 | 193 | 2.0 | 3.0 | 0.00 | 0.00 | 0.00 | 71 | 1010.4 |
| 20260506015640 | 64 | 107 | 1.0 | 2.0 | 0.00 | 0.00 | 0.00 | 71 | 1010.5 |
| 20260506015137 | 64 | 153 | 1.0 | 2.0 | 0.00 | 0.00 | 0.00 | 71 | 1010.4 |
| 20260506014635 | 64 | 126 | 2.0 | 3.0 | 0.00 | 0.00 | 0.00 | 72 | 1010.3 |
| 20260506014130 | 64 | 118 | 2.0 | 3.0 | 0.00 | 0.00 | 0.00 | 72 | 1010.2 |
| 20260506013628 | 65 | 153 | 2.0 | 3.0 | 0.00 | 0.00 | 0.00 | 70 | 1010.3 |
| 20260506013125 | 65 | 103 | 1.0 | 3.0 | 0.00 | 0.00 | 0.00 | 68 | 1010.1 |
| 20260506012621 | 65 | 124 | 0.0 | 2.0 | 0.00 | 0.00 | 0.00 | 68 | 1010.2 |
| 20260506012117 | 66 | 166 | 0.0 | 2.0 | 0.00 | 0.00 | 0.00 | 67 | 1010.1 |
| 20260506011610 | 66 | 66 | 0.0 | 2.0 | 0.00 | 0.00 | 0.00 | 67 | 1010.1 |
| 20260506011106 | 66 | 193 | 0.0 | 2.0 | 0.00 | 0.00 | 0.00 | 66 | 1009.7 |
| 20260506010605 | 67 | 103 | 0.0 | 2.0 | 0.00 | 0.00 | 0.00 | 64 | 1009.8 |
| 20260506005559 | 68 | 96 | 1.0 | 3.0 | 0.00 | 0.00 | 0.00 | 63 | 1009.5 |
| 20260506005055 | 68 | 155 | 1.0 | 3.0 | 0.00 | 0.00 | 0.00 | 60 | 1009.5 |
| 20260506004552 | 69 | 100 | 1.0 | 2.0 | 0.00 | 0.00 | 0.00 | 58 | 1009.4 |
| 20260506004048 | 69 | 203 | 0.0 | 1.0 | 0.00 | 0.00 | 0.00 | 59 | 1009.3 |
| 20260506003545 | 69 | 82 | 3.0 | 4.0 | 0.00 | 0.00 | 0.00 | 58 | 1009.5 |
| 20260506003041 | 70 | 109 | 2.0 | 2.0 | 0.00 | 0.00 | 0.00 | 57 | 1009.3 |
| 20260506002537 | 70 | 117 | 1.0 | 2.0 | 0.00 | 0.00 | 0.00 | 56 | 1009.3 |
| 20260506002033 | 71 | 84 | 0.0 | 1.0 | 0.00 | 0.00 | 0.00 | 54 | 1009.1 |
| 20260506001530 | 72 | 204 | 1.0 | 3.0 | 0.00 | 0.00 | 0.00 | 53 | 1009.3 |
| 20260506001027 | 72 | 199 | 0.0 | 2.0 | 0.00 | 0.00 | 0.00 | 52 | 1009.1 |
| 20260506000525 | 73 | 219 | 1.0 | 4.0 | 0.00 | 0.00 | 0.00 | 51 | 1009.2 |
| 20260506000022 | 73 | 139 | 0.0 | 3.0 | 0.00 | 0.00 | 0.00 | 50 | 1009.2 |
| 20260505235520 | 74 | 228 | 2.0 | 3.0 | 0.00 | 0.00 | 0.00 | 50 | 1009.2 |
| 20260505235016 | 74 | 87 | 1.0 | 5.0 | 0.00 | 0.00 | 0.00 | 49 | 1008.9 |
| 20260505234513 | 75 | 160 | 0.0 | 4.0 | 0.00 | 0.00 | 0.00 | 48 | 1008.9 |
| 20260505234010 | 75 | 73 | 2.0 | 4.0 | 0.00 | 0.00 | 0.00 | 47 | 1008.9 |
| 20260505233508 | 75 | 122 | 5.0 | 7.0 | 0.00 | 0.00 | 0.00 | 47 | 1009.0 |
| 20260505233005 | 74 | 104 | 4.0 | 5.0 | 0.00 | 0.00 | 0.00 | 49 | 1008.8 |
| 20260505232503 | 75 | 121 | 0.0 | 8.0 | 0.00 | 0.00 | 0.00 | 49 | 1008.8 |
| 20260505232000 | 75 | 17 | 1.0 | 5.0 | 0.00 | 0.00 | 0.00 | 50 | 1008.7 |
| 20260505231457 | 75 | 226 | 0.0 | 8.0 | 0.00 | 0.00 | 0.00 | 48 | 1008.9 |
| 20260505230955 | 75 | 153 | 2.0 | 5.0 | 0.00 | 0.00 | 0.00 | 48 | 1008.8 |
| 20260505230452 | 75 | 196 | 3.0 | 4.0 | 0.00 | 0.00 | 0.00 | 47 | 1008.7 |
| 20260505225948 | 75 | 79 | 1.0 | 7.0 | 0.00 | 0.00 | 0.00 | 47 | 1008.6 |
| 20260505225446 | 75 | 172 | 1.0 | 7.0 | 0.00 | 0.00 | 0.00 | 48 | 1008.5 |
| 20260505224942 | 75 | 322 | 1.0 | 9.0 | 0.00 | 0.00 | 0.00 | 47 | 1008.6 |
| 20260505224439 | 75 | 156 | 3.0 | 7.0 | 0.00 | 0.00 | 0.00 | 46 | 1008.7 |
| 20260505223936 | 76 | 113 | 1.0 | 5.0 | 0.00 | 0.00 | 0.00 | 46 | 1008.8 |
| 20260505223433 | 76 | 122 | 3.0 | 7.0 | 0.00 | 0.00 | 0.00 | 46 | 1008.6 |
| 20260505222929 | 76 | 143 | 6.0 | 12.0 | 0.00 | 0.00 | 0.00 | 45 | 1008.6 |
| 20260505222425 | 76 | 130 | 2.0 | 6.0 | 0.00 | 0.00 | 0.00 | 45 | 1008.4 |
| 20260505221921 | 76 | 156 | 4.0 | 10.0 | 0.00 | 0.00 | 0.00 | 45 | 1008.5 |
| 20260505221419 | 77 | 128 | 3.0 | 7.0 | 0.00 | 0.00 | 0.00 | 45 | 1008.3 |
| 20260505220916 | 76 | 120 | 6.0 | 11.0 | 0.00 | 0.00 | 0.00 | 45 | 1008.4 |
| 20260505220413 | 76 | 117 | 2.0 | 4.0 | 0.00 | 0.00 | 0.00 | 45 | 1008.4 |
| 20260505215910 | 76 | 115 | 8.0 | 10.0 | 0.00 | 0.00 | 0.00 | 45 | 1008.3 |
| 20260505215408 | 76 | 261 | 1.0 | 5.0 | 0.00 | 0.00 | 0.00 | 44 | 1008.3 |
| 20260505214906 | 76 | 108 | 4.0 | 5.0 | 0.00 | 0.00 | 0.00 | 46 | 1008.3 |
| 20260505214403 | 76 | 167 | 2.0 | 7.0 | 0.00 | 0.00 | 0.00 | 45 | 1008.4 |
| 20260505213900 | 76 | 76 | 3.0 | 7.0 | 0.00 | 0.00 | 0.00 | 46 | 1008.4 |
| 20260505213358 | 77 | 299 | 1.0 | 11.0 | 0.00 | 0.00 | 0.00 | 45 | 1008.4 |
| 20260505212854 | 77 | 136 | 3.0 | 19.0 | 0.00 | 0.00 | 0.00 | 44 | 1008.3 |
| 20260505212351 | 77 | 137 | 9.0 | 24.0 | 0.00 | 0.00 | 0.00 | 43 | 1008.5 |
| 20260505211847 | 77 | 100 | 2.0 | 11.0 | 0.00 | 0.00 | 0.00 | 43 | 1008.5 |
| 20260505211345 | 78 | 87 | 2.0 | 17.0 | 0.00 | 0.00 | 0.00 | 41 | 1008.4 |
| 20260505210841 | 78 | 127 | 4.0 | 15.0 | 0.00 | 0.00 | 0.00 | 42 | 1008.4 |
| 20260505210339 | 78 | 123 | 7.0 | 15.0 | 0.00 | 0.00 | 0.00 | 41 | 1008.1 |
| 20260505205835 | 78 | 128 | 7.0 | 12.0 | 0.00 | 0.00 | 0.00 | 41 | 1008.1 |
| 20260505205334 | 78 | 113 | 9.0 | 19.0 | 0.00 | 0.00 | 0.00 | 41 | 1008.1 |
| 20260505204830 | 78 | 86 | 6.0 | 13.0 | 0.00 | 0.00 | 0.00 | 41 | 1008.1 |
| 20260505204328 | 78 | 117 | 7.0 | 11.0 | 0.00 | 0.00 | 0.00 | 41 | 1008.0 |
| 20260505203825 | 78 | 115 | 5.0 | 21.0 | 0.00 | 0.00 | 0.00 | 40 | 1008.2 |
| 20260505203321 | 78 | 113 | 6.0 | 15.0 | 0.00 | 0.00 | 0.00 | 41 | 1008.1 |
| 20260505202818 | 78 | 134 | 8.0 | 16.0 | 0.00 | 0.00 | 0.00 | 40 | 1008.1 |
| 20260505202314 | 79 | 224 | 4.0 | 20.0 | 0.00 | 0.00 | 0.00 | 40 | 1008.0 |
| 20260505201811 | 79 | 158 | 8.0 | 13.0 | 0.00 | 0.00 | 0.00 | 40 | 1007.8 |
| 20260505201308 | 79 | 131 | 8.0 | 14.0 | 0.00 | 0.00 | 0.00 | 40 | 1007.8 |
| 20260505200807 | 79 | 288 | 5.0 | 17.0 | 0.00 | 0.00 | 0.00 | 40 | 1007.9 |
| 20260505200303 | 80 | 72 | 3.0 | 16.0 | 0.00 | 0.00 | 0.00 | 40 | 1007.9 |
| 20260505195758 | 80 | 58 | 12.0 | 17.0 | 0.00 | 0.00 | 0.00 | 40 | 1007.9 |
| 20260505195256 | 80 | 74 | 38.0 | 38.0 | 0.00 | 0.00 | 0.00 | 39 | 1008.0 |
| 20260505194753 | 80 | 113 | 6.0 | 17.0 | 0.00 | 0.00 | 0.00 | 39 | 1007.9 |
| 20260505194250 | 80 | 110 | 4.0 | 15.0 | 0.00 | 0.00 | 0.00 | 40 | 1007.9 |
| 20260505193745 | 80 | 85 | 4.0 | 22.0 | 0.00 | 0.00 | 0.00 | 39 | 1008.0 |
| 20260505193243 | 82 | 132 | 5.0 | 23.0 | 0.00 | 0.00 | 0.00 | 38 | 1008.0 |
| 20260505192741 | 82 | 105 | 4.0 | 15.0 | 0.00 | 0.00 | 0.00 | 39 | 1007.9 |
| 20260505192239 | 82 | 82 | 11.0 | 26.0 | 0.00 | 0.00 | 0.00 | 39 | 1008.0 |
| 20260505191737 | 82 | 24 | 2.0 | 13.0 | 0.00 | 0.00 | 0.00 | 39 | 1008.1 |
| 20260505191235 | 82 | 87 | 11.0 | 25.0 | 0.00 | 0.00 | 0.00 | 39 | 1008.1 |
| 20260505190731 | 81 | 106 | 5.0 | 24.0 | 0.00 | 0.00 | 0.00 | 39 | 1008.4 |
| 20260505190231 | 81 | 125 | 5.0 | 23.0 | 0.00 | 0.00 | 0.00 | 39 | 1008.4 |
| 20260505185728 | 81 | 115 | 9.0 | 30.0 | 0.00 | 0.00 | 0.00 | 38 | 1008.5 |
| 20260505185224 | 80 | 92 | 6.0 | 22.0 | 0.00 | 0.00 | 0.00 | 40 | 1008.7 |
| 20260505184720 | 80 | 163 | 5.0 | 26.0 | 0.00 | 0.00 | 0.00 | 41 | 1008.7 |
| 20260505184218 | 82 | 89 | 10.0 | 12.0 | 0.00 | 0.00 | 0.00 | 40 | 1008.7 |
| 20260505183714 | 82 | 107 | 7.0 | 18.0 | 0.00 | 0.00 | 0.00 | 39 | 1008.9 |
| 20260505183212 | 82 | 121 | 4.0 | 15.0 | 0.00 | 0.00 | 0.00 | 38 | 1008.8 |
| 20260505182708 | 81 | 96 | 5.0 | 21.0 | 0.00 | 0.00 | 0.00 | 39 | 1008.9 |
| 20260505182205 | 82 | 94 | 8.0 | 18.0 | 0.00 | 0.00 | 0.00 | 39 | 1009.2 |
| 20260505181701 | 82 | 303 | 11.0 | 18.0 | 0.00 | 0.00 | 0.00 | 39 | 1009.2 |
| 20260505181159 | 81 | 107 | 4.0 | 20.0 | 0.00 | 0.00 | 0.00 | 39 | 1009.2 |
| 20260505180655 | 81 | 134 | 7.0 | 20.0 | 0.00 | 0.00 | 0.00 | 37 | 1009.3 |
| 20260505180153 | 80 | 116 | 7.0 | 17.0 | 0.00 | 0.00 | 0.00 | 39 | 1009.3 |
| 20260505175648 | 81 | 114 | 5.0 | 24.0 | 0.00 | 0.00 | 0.00 | 40 | 1009.7 |
| 20260505175145 | 81 | 114 | 10.0 | 14.0 | 0.00 | 0.00 | 0.00 | 41 | 1009.5 |
| 20260505174642 | 82 | 111 | 10.0 | 18.0 | 0.00 | 0.00 | 0.00 | 42 | 1009.3 |
| 20260505174138 | 82 | 254 | 2.0 | 21.0 | 0.00 | 0.00 | 0.00 | 42 | 1009.4 |
| 20260505173635 | 81 | 154 | 3.0 | 15.0 | 0.00 | 0.00 | 0.00 | 43 | 1009.6 |
| 20260505173131 | 81 | 95 | 15.0 | 15.0 | 0.00 | 0.00 | 0.00 | 42 | 1009.6 |
| 20260505172629 | 81 | 291 | 3.0 | 18.0 | 0.00 | 0.00 | 0.00 | 44 | 1009.6 |
| 20260505172126 | 80 | 75 | 13.0 | 14.0 | 0.00 | 0.00 | 0.00 | 44 | 1009.2 |
| 20260505171620 | 80 | 60 | 7.0 | 13.0 | 0.00 | 0.00 | 0.00 | 45 | 1009.4 |
| 20260505171118 | 79 | 197 | 5.0 | 15.0 | 0.00 | 0.00 | 0.00 | 45 | 1009.5 |
| 20260505170615 | 79 | 214 | 3.0 | 13.0 | 0.00 | 0.00 | 0.00 | 45 | 1009.7 |
| 20260505170111 | 79 | 130 | 5.0 | 13.0 | 0.00 | 0.00 | 0.00 | 45 | 1009.9 |
| 20260505165606 | 79 | 246 | 25.0 | 25.0 | 0.00 | 0.00 | 0.00 | 45 | 1009.9 |
| 20260505165102 | 78 | 176 | 3.0 | 20.0 | 0.00 | 0.00 | 0.00 | 46 | 1009.8 |
| 20260505164558 | 79 | 185 | 13.0 | 17.0 | 0.00 | 0.00 | 0.00 | 45 | 1009.9 |
| 20260505164056 | 78 | 41 | 3.0 | 22.0 | 0.00 | 0.00 | 0.00 | 46 | 1010.1 |
| 20260505163554 | 79 | 219 | 17.0 | 24.0 | 0.00 | 0.00 | 0.00 | 45 | 1010.1 |
| 20260505163051 | 79 | 122 | 2.0 | 16.0 | 0.00 | 0.00 | 0.00 | 47 | 1009.9 |
| 20260505162544 | 78 | 224 | 10.0 | 22.0 | 0.00 | 0.00 | 0.00 | 46 | 1010.3 |
| 20260505162041 | 78 | 170 | 14.0 | 22.0 | 0.00 | 0.00 | 0.00 | 47 | 1010.2 |
| 20260505161538 | 78 | 112 | 10.0 | 20.0 | 0.00 | 0.00 | 0.00 | 46 | 1010.2 |
| 20260505161035 | 78 | 222 | 6.0 | 16.0 | 0.00 | 0.00 | 0.00 | 47 | 1010.3 |
| 20260505160533 | 79 | 190 | 9.0 | 24.0 | 0.00 | 0.00 | 0.00 | 45 | 1010.2 |
| 20260505153004 | 77 | 227 | 6.0 | 23.0 | 0.00 | 0.00 | 0.00 | 48 | 1010.7 |
| 20260505152501 | 77 | 181 | 5.0 | 16.0 | 0.00 | 0.00 | 0.00 | 48 | 1010.7 |
| 20260505151955 | 77 | 167 | 7.0 | 14.0 | 0.00 | 0.00 | 0.00 | 49 | 1010.7 |
| 20260505151445 | 76 | 165 | 26.0 | 26.0 | 0.00 | 0.00 | 0.00 | 50 | 1010.8 |
| 20260505150942 | 76 | 171 | 2.0 | 16.0 | 0.00 | 0.00 | 0.00 | 51 | 1010.6 |
| 20260505150434 | 76 | 271 | 7.0 | 12.0 | 0.00 | 0.00 | 0.00 | 51 | 1010.8 |
| 20260505140352 | 73 | 202 | 3.0 | 13.0 | 0.00 | 0.00 | 0.00 | 55 | 1011.1 |
| 20260505124806 | 67 | 171 | 2.0 | 7.0 | 0.00 | 0.00 | 0.00 | 62 | 1011.6 |
| 20260505124303 | 67 | 341 | 3.0 | 12.0 | 0.00 | 0.00 | 0.00 | 63 | 1011.7 |
| 20260505123758 | 67 | 71 | 3.0 | 7.0 | 0.00 | 0.00 | 0.00 | 66 | 1011.6 |
| 20260505123255 | 65 | 116 | 2.0 | 6.0 | 0.00 | 0.00 | 0.00 | 65 | 1011.7 |
| 20260505122751 | 64 | 41 | 3.0 | 6.0 | 0.00 | 0.00 | 0.00 | 69 | 1011.7 |
| 20260505122249 | 66 | 159 | 4.0 | 7.0 | 0.00 | 0.00 | 0.00 | 67 | 1011.6 |
| 20260505121745 | 65 | 217 | 2.0 | 9.0 | 0.00 | 0.00 | 0.00 | 67 | 1011.8 |
| 20260505121242 | 65 | 340 | 2.0 | 7.0 | 0.00 | 0.00 | 0.00 | 68 | 1011.7 |
| 20260505120738 | 64 | 84 | 1.0 | 5.0 | 0.00 | 0.00 | 0.00 | 72 | 1011.8 |
| 20260505120235 | 64 | 156 | 2.0 | 6.0 | 0.00 | 0.00 | 0.00 | 72 | 1011.8 |
| 20260505115733 | 63 | 54 | 1.0 | 5.0 | 0.00 | 0.00 | 0.00 | 75 | 1011.6 |
| 20260505115231 | 62 | 24 | 2.0 | 5.0 | 0.00 | 0.00 | 0.00 | 79 | 1011.5 |
| 20260505114728 | 60 | 63 | 1.0 | 2.0 | 0.00 | 0.00 | 0.00 | 85 | 1011.4 |
| 20260505114224 | 59 | 116 | 1.0 | 2.0 | 0.00 | 0.00 | 0.00 | 84 | 1011.4 |
| 20260505113721 | 59 | 61 | 2.0 | 3.0 | 0.00 | 0.00 | 0.00 | 86 | 1011.4 |
| 20260505113217 | 57 | 94 | 1.0 | 2.0 | 0.00 | 0.00 | 0.00 | 87 | 1011.5 |
| 20260505112713 | 55 | 96 | 1.0 | 2.0 | 0.00 | 0.00 | 0.00 | 94 | 1011.5 |
| 20260505112211 | 54 | 50 | 1.0 | 2.0 | 0.00 | 0.00 | 0.00 | 97 | 1011.4 |
| 20260505111706 | 54 | 71 | 1.0 | 2.0 | 0.00 | 0.00 | 0.00 | 99 | 1011.4 |
| 20260505111202 | 53 | 101 | 1.0 | 3.0 | 0.00 | 0.00 | 0.00 | 99 | 1011.4 |
| 20260505110658 | 52 | 42 | 0.0 | 2.0 | 0.00 | 0.00 | 0.00 | 99 | 1011.3 |
| 20260505110156 | 52 | 124 | 0.0 | 2.0 | 0.00 | 0.00 | 0.00 | 99 | 1011.2 |
| 20260505102131 | 50 | 59 | 1.0 | 2.0 | 0.00 | 0.00 | 0.00 | 99 | 1010.8 |
| 20260505101630 | 50 | 134 | 0.0 | 2.0 | 0.00 | 0.00 | 0.00 | 99 | 1010.7 |
| 20260505101126 | 50 | 203 | 1.0 | 3.0 | 0.00 | 0.00 | 0.00 | 99 | 1010.6 |
| 20260505100622 | 50 | 217 | 0.0 | 2.0 | 0.00 | 0.00 | 0.00 | 99 | 1010.8 |
| 20260505100119 | 51 | 235 | 2.0 | 3.0 | 0.00 | 0.00 | 0.00 | 99 | 1010.7 |
| 20260505095615 | 51 | 223 | 2.0 | 3.0 | 0.00 | 0.00 | 0.00 | 99 | 1010.8 |
| 20260505095112 | 51 | 202 | 0.0 | 3.0 | 0.00 | 0.00 | 0.00 | 99 | 1010.8 |
| 20260505094608 | 51 | 278 | 1.0 | 3.0 | 0.00 | 0.00 | 0.00 | 99 | 1010.8 |
| 20260505094104 | 51 | 319 | 2.0 | 4.0 | 0.00 | 0.00 | 0.00 | 99 | 1010.6 |
| 20260505093601 | 51 | 289 | 1.0 | 3.0 | 0.00 | 0.00 | 0.00 | 99 | 1010.8 |
| 20260505093058 | 51 | 250 | 1.0 | 5.0 | 0.00 | 0.00 | 0.00 | 99 | 1010.7 |
| 20260505092555 | 52 | 293 | 1.0 | 2.0 | 0.00 | 0.00 | 0.00 | 99 | 1010.8 |
| 20260505092054 | 52 | 62 | 0.0 | 3.0 | 0.00 | 0.00 | 0.00 | 99 | 1010.5 |
| 20260505091550 | 52 | 238 | 1.0 | 2.0 | 0.00 | 0.00 | 0.00 | 99 | 1010.6 |
| 20260505091049 | 52 | 209 | 0.0 | 2.0 | 0.00 | 0.00 | 0.00 | 99 | 1010.5 |
| 20260505090547 | 52 | 37 | 1.0 | 2.0 | 0.00 | 0.00 | 0.00 | 99 | 1010.6 |
| 20260505090044 | 52 | 34 | 0.0 | 2.0 | 0.00 | 0.00 | 0.00 | 99 | 1010.7 |
| 20260505085542 | 53 | 234 | 0.0 | 2.0 | 0.00 | 0.00 | 0.00 | 99 | 1010.4 |
| 20260505085040 | 53 | 175 | 0.0 | 3.0 | 0.00 | 0.00 | 0.00 | 99 | 1010.4 |
| 20260505084537 | 53 | 278 | 0.0 | 2.0 | 0.00 | 0.00 | 0.00 | 99 | 1010.6 |
| 20260505084036 | 53 | 139 | 1.0 | 2.0 | 0.00 | 0.00 | 0.00 | 99 | 1010.5 |
| 20260505083532 | 53 | 149 | 0.0 | 3.0 | 0.00 | 0.00 | 0.00 | 99 | 1010.5 |
| 20260505083029 | 54 | 232 | 1.0 | 2.0 | 0.00 | 0.00 | 0.00 | 99 | 1010.6 |
| 20260505082525 | 54 | 224 | 0.0 | 3.0 | 0.00 | 0.00 | 0.00 | 99 | 1010.8 |
| 20260505082021 | 54 | 309 | 1.0 | 3.0 | 0.00 | 0.00 | 0.00 | 99 | 1010.6 |
| 20260505081518 | 54 | 35 | 1.0 | 2.0 | 0.00 | 0.00 | 0.00 | 99 | 1010.7 |
| 20260505081015 | 54 | 37 | 0.0 | 3.0 | 0.00 | 0.00 | 0.00 | 99 | 1010.9 |
| 20260505080511 | 54 | 342 | 2.0 | 3.0 | 0.00 | 0.00 | 0.00 | 99 | 1010.9 |
| 20260505080008 | 54 | 14 | 0.0 | 2.0 | 0.00 | 0.00 | 0.00 | 98 | 1010.4 |
| 20260505075504 | 54 | 39 | 1.0 | 2.0 | 0.00 | 0.00 | 0.00 | 97 | 1010.4 |
| 20260505075001 | 54 | 206 | 0.0 | 3.0 | 0.00 | 0.00 | 0.00 | 96 | 1010.4 |
| 20260505074458 | 55 | 352 | 1.0 | 3.0 | 0.00 | 0.00 | 0.00 | 95 | 1010.3 |
| 20260505073955 | 55 | 131 | 2.0 | 4.0 | 0.00 | 0.00 | 0.00 | 90 | 1010.2 |
| 20260505073453 | 58 | 82 | 2.0 | 5.0 | 0.00 | 0.00 | 0.00 | 85 | 1010.6 |
| 20260505072950 | 58 | 70 | 2.0 | 3.0 | 0.00 | 0.00 | 0.00 | 70 | 1010.3 |
| 20260505072446 | 58 | 57 | 2.0 | 3.0 | 0.00 | 0.00 | 0.00 | 70 | 1010.4 |
| 20260505071942 | 58 | 48 | 1.0 | 3.0 | 0.00 | 0.00 | 0.00 | 70 | 1010.3 |
| 20260505071438 | 59 | 33 | 1.0 | 2.0 | 0.00 | 0.00 | 0.00 | 68 | 1010.1 |